| time (UTC) | temp F | wind direction | speed MPH | gust MPH | rain 1hr in | rain 24hr in | rain mn in | humidity % | barometer mb |
| 20260503190025 | 62 | 219 | 10.0 | 17.0 | 0.00 | 0.00 | 0.00 | 48 | 1012.5 |
| 20260503184513 | 60 | 219 | 11.0 | 17.0 | 0.00 | 0.00 | 0.00 | 49 | 1013.3 |
| 20260503183010 | 61 | 211 | 11.0 | 18.0 | 0.00 | 0.00 | 0.00 | 48 | 1013.4 |
| 20260503181510 | 61 | 225 | 10.0 | 17.0 | 0.00 | 0.00 | 0.00 | 47 | 1013.6 |
| 20260503180010 | 61 | 213 | 12.0 | 18.0 | 0.00 | 0.00 | 0.00 | 46 | 1013.8 |
| 20260503174508 | 62 | 198 | 13.0 | 17.0 | 0.00 | 0.00 | 0.00 | 46 | 1013.6 |
| 20260503173005 | 61 | 214 | 11.0 | 18.0 | 0.00 | 0.00 | 0.00 | 48 | 1014.1 |
| 20260503171502 | 62 | 188 | 8.0 | 14.0 | 0.00 | 0.00 | 0.00 | 48 | 1014.4 |
| 20260503170118 | 61 | 210 | 8.0 | 17.0 | 0.00 | 0.00 | 0.00 | 50 | 1014.5 |
| 20260503160105 | 59 | 219 | 10.0 | 17.0 | 0.00 | 0.00 | 0.00 | 53 | 1015.9 |
| 20260503081555 | 45 | 215 | 5.0 | 8.0 | 0.00 | 0.00 | 0.00 | 60 | 1017.5 |
| 20260503080103 | 45 | 215 | 4.0 | 8.0 | 0.00 | 0.00 | 0.00 | 60 | 1017.5 |
| 20260503071603 | 46 | 213 | 4.0 | 7.0 | 0.00 | 0.00 | 0.00 | 58 | 1017.7 |
| 20260503060140 | 47 | 211 | 2.0 | 7.0 | 0.00 | 0.00 | 0.00 | 54 | 1018.1 |
| 20260503054557 | 47 | 261 | 3.0 | 4.0 | 0.00 | 0.00 | 0.00 | 54 | 1018.1 |
| 20260503053038 | 47 | 273 | 2.0 | 4.0 | 0.00 | 0.00 | 0.00 | 54 | 1018.1 |
| 20260503051535 | 47 | 286 | 1.0 | 4.0 | 0.00 | 0.00 | 0.00 | 56 | 1018.2 |
| 20260503050034 | 47 | 321 | 1.0 | 4.0 | 0.00 | 0.00 | 0.00 | 56 | 1018.2 |
| 20260503044539 | 47 | 335 | 1.0 | 3.0 | 0.00 | 0.00 | 0.00 | 57 | 1018.2 |
| 20260503043041 | 47 | 337 | 0.0 | 3.0 | 0.00 | 0.00 | 0.00 | 56 | 1018.2 |
| 20260503041531 | 46 | 339 | 0.0 | 0.0 | 0.00 | 0.00 | 0.00 | 58 | 1018.2 |
| 20260503040033 | 46 | 339 | 0.0 | 0.0 | 0.00 | 0.00 | 0.00 | 58 | 1018.2 |
| 20260503034530 | 46 | 339 | 0.0 | 0.0 | 0.00 | 0.00 | 0.00 | 60 | 1018.3 |
| 20260503033029 | 46 | 339 | 0.0 | 0.0 | 0.00 | 0.00 | 0.00 | 61 | 1018.3 |
| 20260503031529 | 46 | 339 | 0.0 | 0.0 | 0.00 | 0.00 | 0.00 | 60 | 1018.5 |
| 20260503030034 | 47 | 339 | 0.0 | 0.0 | 0.00 | 0.00 | 0.00 | 60 | 1018.6 |
| 20260503024528 | 47 | 339 | 0.0 | 0.0 | 0.00 | 0.00 | 0.00 | 58 | 1018.5 |
| 20260503023028 | 47 | 339 | 0.0 | 0.0 | 0.00 | 0.00 | 0.00 | 57 | 1018.4 |
| 20260503021527 | 48 | 339 | 0.0 | 0.0 | 0.00 | 0.00 | 0.00 | 56 | 1018.3 |
| 20260503020027 | 49 | 339 | 0.0 | 0.0 | 0.00 | 0.00 | 0.00 | 55 | 1018.3 |
| 20260503014526 | 49 | 339 | 0.0 | 0.0 | 0.00 | 0.00 | 0.00 | 53 | 1018.0 |
| 20260503013036 | 51 | 339 | 0.0 | 0.0 | 0.00 | 0.00 | 0.00 | 48 | 1017.9 |
| 20260503011526 | 52 | 339 | 0.0 | 0.0 | 0.00 | 0.00 | 0.00 | 47 | 1017.9 |
| 20260503010025 | 53 | 339 | 0.0 | 0.0 | 0.00 | 0.00 | 0.00 | 43 | 1017.9 |
| 20260503004533 | 54 | 339 | 0.0 | 0.0 | 0.00 | 0.00 | 0.00 | 39 | 1017.9 |
| 20260503003036 | 54 | 339 | 0.0 | 0.0 | 0.00 | 0.00 | 0.00 | 39 | 1017.8 |
| 20260503001524 | 55 | 328 | 0.0 | 1.0 | 0.00 | 0.00 | 0.00 | 38 | 1017.7 |
| 20260503000026 | 55 | 328 | 0.0 | 0.0 | 0.00 | 0.00 | 0.00 | 37 | 1017.7 |
| 20260502233030 | 55 | 320 | 3.0 | 7.0 | 0.00 | 0.00 | 0.00 | 37 | 1017.9 |
| 20260502231521 | 57 | 329 | 2.0 | 9.0 | 0.00 | 0.00 | 0.00 | 34 | 1017.9 |
| 20260502230025 | 58 | 297 | 3.0 | 10.0 | 0.00 | 0.00 | 0.00 | 33 | 1018.0 |
| 20260502224520 | 58 | 339 | 4.0 | 7.0 | 0.00 | 0.00 | 0.00 | 35 | 1018.0 |
| 20260502223029 | 56 | 331 | 2.0 | 7.0 | 0.00 | 0.00 | 0.00 | 35 | 1018.0 |
| 20260502221518 | 58 | 335 | 4.0 | 6.0 | 0.00 | 0.00 | 0.00 | 33 | 1018.0 |
| 20260502220021 | 56 | 337 | 0.0 | 1.0 | 0.00 | 0.00 | 0.00 | 35 | 1018.0 |
| 20260502214516 | 56 | 337 | 2.0 | 6.0 | 0.00 | 0.00 | 0.00 | 35 | 1018.1 |
| 20260502213015 | 57 | 290 | 2.0 | 8.0 | 0.00 | 0.00 | 0.00 | 35 | 1018.1 |
| 20260502211514 | 55 | 329 | 2.0 | 8.0 | 0.00 | 0.00 | 0.00 | 36 | 1018.1 |
| 20260502210013 | 56 | 31 | 2.0 | 9.0 | 0.00 | 0.00 | 0.00 | 36 | 1018.2 |
| 20260502204513 | 58 | 360 | 0.0 | 1.0 | 0.00 | 0.00 | 0.00 | 35 | 1018.2 |
| 20260502203012 | 56 | 295 | 3.0 | 8.0 | 0.00 | 0.00 | 0.00 | 36 | 1018.4 |
| 20260502201515 | 56 | 317 | 4.0 | 11.0 | 0.00 | 0.00 | 0.00 | 36 | 1018.5 |
| 20260502200012 | 57 | 322 | 5.0 | 11.0 | 0.00 | 0.00 | 0.00 | 33 | 1018.7 |
| 20260502194526 | 56 | 335 | 3.0 | 12.0 | 0.00 | 0.00 | 0.00 | 36 | 1018.7 |
| 20260502193010 | 58 | 360 | 4.0 | 8.0 | 0.00 | 0.00 | 0.00 | 33 | 1018.7 |
| 20260502191509 | 58 | 28 | 3.0 | 9.0 | 0.00 | 0.00 | 0.00 | 33 | 1018.8 |